Regional Weather Roundup
Issued by NWS

Home | Current Version | Previous Version | Graphics & Text | Print | Product List | Glossary On
Versions: 1 2 3 4 5 6 7 8 9 10 11 12 13 14 15 16 17 18 19 20 21 22 23 24 25 26 27 28 29 30 31 32 33 34 35 36 37 38 39 40 41 42 43 44 45 46 47 48 49 50
000
ASUS45 KBOU 220407
RWRCO

WEATHER ROUNDUP FOR COLORADO
NATIONAL WEATHER SERVICE DENVER/BOULDER CO
1000 PM MDT FRI JUL 21 2017

NOTE: "FAIR" INDICATES FEW OR NO CLOUDS BELOW 12000 FEET WITH NO
SIGNIFICANT WEATHER AND/OR OBSTRUCTIONS TO VISIBILITY.

COZ001>005-013-030-031-220500-
...NORTHWEST COLORADO...

CITY           SKY/WX    TMP DP  RH WIND       PRES   REMARKS
CRAIG          FAIR      63  53  70 E10       30.27R
HAYDEN         MOCLDY    63  48  59 E14       30.29F
MEEKER         FAIR      66  51  58 E8        30.27S
RABBIT EARS PA DRIZZLE   48  43  81 NE7       30.61S
STEAMBOAT SPGS MOCLDY    58  51  76 N7G18     30.32R
WALDEN         CLOUDY    54  52  94 SE22G28   30.41F
$$

COZ006>008-011-220500-
...WEST CENTRAL VALLEYS...

CITY           SKY/WX    TMP DP  RH WIND       PRES   REMARKS
GRAND JUNCTION LGT RAIN  67  63  87 SE15      30.20F
MONTROSE       MOCLDY    67  56  67 N5        30.30R
EAGLE          MOCLDY    61  57  87 W5        30.40R
RIFLE          CLOUDY    64  62  93 N3        30.28R
DELTA          MOCLDY    73  58  57 NE5       30.22R
NUCLA          CLOUDY    68  54  60 NW15G21   30.31R
$$

COZ017>023-064>068-220500-
...SOUTHWEST COLORADO...

CITY           SKY/WX    TMP DP  RH WIND       PRES   REMARKS
DURANGO        CLOUDY    61  56  83 SE6       30.26R
CORTEZ         CLOUDY    70  58  65 E3        30.20R
PAGOSA SPRINGS MOCLDY    61  56  83 CALM      30.32F
TELLURIDE      HVY RAIN  55  51  85 SE6       30.51R
WOLF CREEK PAS CLOUDY    45  43  93 NW5       30.69F
$$

COZ009-010-012-014-032>034-037-058>063-220500-
...CENTRAL COLORADO...

CITY           SKY/WX    TMP DP  RH WIND       PRES   REMARKS
ASPEN          MOCLDY    60  53  77 CALM      30.42R
BUENA VISTA    FAIR      62  48  60 CALM      30.40R
COPPER MTN     HAZE      48  43  81 W7        30.69R VSB<1/4
BERTHOUD PASS  CLOUDY    41  28  60 NW22      30.71F
COTTONWOOD PAS FAIR      59  45  58 SW7       30.53R
GUNNISON       FAIR      62  53  72 CALM      30.37R
KREMMLING      CLOUDY    66  52  59 CALM      30.45R
LEADVILLE      MOCLDY    51  47  86 N7        30.53R
MONARCH PASS   FAIR      50  39  66 E12       30.77R
SALIDA         FAIR      68  48  49 NW6       30.42R
SUNLIGHT       CLOUDY    46  45  93 NE7       30.63R
WILKERSON PASS FAIR      50  39  66 CALM      30.67R
$$

COZ069>075-220500-
...SAN LUIS VALLEY/SANGRE DE CRISTO MOUNTAINS...

CITY           SKY/WX    TMP DP  RH WIND       PRES   REMARKS
ALAMOSA        FAIR      66  47  50 S3        30.27R
DEL NORTE      FAIR      67  44  42 W21G29    30.33S
LA VETA PASS   NOT AVBL
SAGUACHE         N/A    N/A N/A N/A MISG        N/A
$$

COZ035-036-038>040-220500-
...NORTHERN COLORADO FRONT RANGE...

CITY           SKY/WX    TMP DP  RH WIND       PRES   REMARKS
DENVER INTL AP MOCLDY    67  58  72 E5        30.25R
DMNS CITY PARK   N/A     69  56  63 N9G15     30.27R
AURORA         LGT RAIN  67  57  69 E6        30.28R
FRONT RANGE AP MOCLDY    70  55  60 W6        30.28R
ERIE MUNI ARPT LGT RAIN  66  59  77 N15G23    30.26R
BOULDER MUN AP LGT RAIN  68  57  68 N9        30.25R
CENTENNIAL     CLOUDY    69  56  62 CALM      30.28R
BROOMFIELD     DRIZZLE   68  55  64 N10       30.28R
FORT COLLINS   LGT RAIN  66  57  72 NE10      30.24S
LONGMONT       DRIZZLE   67  60  76 N3        30.25R
$$

COZ041-046-047-076>085-087-088-220500-
...PIKES PEAK/PALMER DIVIDE AND SOUTHERN FOOTHILLS...

CITY           SKY/WX    TMP DP  RH WIND       PRES   REMARKS
COLO. SPRINGS  LGT RAIN  68  57  68 N16G23    30.30R
A. F. ACADEMY  LGT RAIN  65  56  71 NW9       30.32R
SCHRIEVER AFB  MOCLDY    65  53  64 N26G38    30.24F
CHEYENNE MTN   LGT RAIN  65  57  74 W6        30.32R
ELLICOTT       FAIR     N/A N/A N/A N33G40    30.19F
FALCON         LGT RAIN  61  53  75 N13G25    30.32F
FORT CARSON    RAIN      65  58  77 NW14      30.29R
LIMON          LGT RAIN  62  60  93 NW16      30.25S
MONUMENT HILL  CLOUDY    61  54  77 E7        30.38S
CANON CITY     RAIN      66  63  88 N18       30.19S
WALSENBURG     CLOUDY    73  54  49 NE12G24   30.19R
TRINIDAD       MOCLDY    80  45  28 NW14      30.14R
$$

COZ042>045-048>051-090-091-220500-
...NORTHEAST COLORADO...

CITY           SKY/WX    TMP DP  RH WIND       PRES   REMARKS
GREELEY ARPT   LGT RAIN  65  61  87 NE7       30.23F
AKRON          LGT RAIN  68  59  73 NW13      30.20R
BURLINGTON     MOCLDY    76  60  57 NW22      30.05R
WRAY           NOT AVBL
YUMA           TSTM      66  54  63 W22G28    30.15R
STERLING       LGT RAIN  70  59  68 NW12      30.12R
HOLYOKE        FAIR      86  46  25 NW14G31   30.01R THUNDER
FORT MORGAN    RAIN      68  56  66 NW14      30.20R
$$

COZ086-089-092>099-220500-
...SOUTHEAST COLORADO...

CITY           SKY/WX    TMP DP  RH WIND       PRES   REMARKS
PUEBLO         FAIR      76  55  48 N20G28    30.10F
LA JUNTA       FAIR      77  57  50 N22G30    30.06R
LAMAR          FAIR      78  52  40 SW7       29.95R
SPRINGFIELD      N/A     74  50  42 S10       30.03R
$$



USA.gov is the U.S. government's official web portal to all federal, state and local government web resources and services.